Location: Cortada de Papelón
(10.0378°N, 66.9528°W)
Time: 09:54:55
(UTC+00:00)

Meteor 1-31 Rocket - Pass Details

Date: 13 June 2024
Orbit: 494 x 513 km, 97.7° (Epoch: 19 July)

Event Time Altitude Azimuth Distance (km) Brightness Sun altitude
Rises 23:03:45 0° 181° (S) 2,592 6.0 -4.1°
Reaches altitude 10° 23:05:55 10° 188° (S) 1,704 5.2 -4.6°
Maximum altitude 23:09:22 40° 259° (W) 739 4.1 -5.3°
Drops below altitude 10° 23:12:49 10° 330° (NNW) 1,692 6.3 -6.1°
Sets 23:14:58 0° 338° (NNW) 2,570 7.0 -6.6°
